Location: Spruce Knob
(38.6995°N, 79.5330°W)
Time: 21:04:41
(UTC-04:00)

A-11 Canister half - Pass Details

Date: 04 February 2022
Orbit: 1513 x 1686 km, 47.2° (Epoch: 26 May)

Event Time Altitude Azimuth Distance (km) Brightness Sun altitude
Rises 20:35:05 0° 300° (WNW) 4,705 12.4 -33.8°
Reaches altitude 10° 20:38:11 10° 298° (WNW) 3,704 11.7 -34.4°
Maximum altitude 20:47:21 66° 219° (SW) 1,633 9.0 -36.1°
Enters shadow 20:48:17 62° 189° (S) 1,667 9.0 -36.3°
Drops below altitude 10° 20:56:24 10° 140° (SE) 3,667 - -37.9°
Sets 20:59:28 0° 137° (SE) 4,655 - -38.5°
